Frederick, OK

7:03 AM CDT on June 23, 2017 (GMT -0500)
Frederick Municipal

Weather History for KFDR - May, 2013

Change the Weather History Date:

Tuesday, May 14, 2013

  Actual Average (KLTS) Record (KLTS)
Temperature  
Mean Temperature 74 °F -  
Max Temperature 91 °F 82 °F 95 °F (1998)
Min Temperature 57 °F 58 °F 42 °F (2002)
Cooling Degree Days 9    
Growing Degree Days 24 (Base 50)    
Moisture  
Dew Point 48 °F    
Average Humidity 37    
Maximum Humidity 60    
Minimum Humidity 22    
Precipitation  
Precipitation 0.00 in - - ()
Sea Level Pressure  
Sea Level Pressure 29.94 in    
Wind  
Wind Speed 12 mph (SSW)    
Max Wind Speed 22 mph    
Max Gust Speed 30 mph    
Visibility 10 miles    
Events      
Averages and records for this station are not official NWS values.
T = Trace of Precipitation, MM = Missing Value Source: NWS Daily Summary

Daily Weather History Graph

Daily Weather History Graph

Search for Another Location

Airport or City:

Trip Planner

Search our weather history database for the weather conditions in past years. The results will help you decide how hot, cold, wet, or windy it might be!

Date:

Astronomy

May. 14, 2013 Rise Set
Actual Time 6:34 AM CDT 8:30 PM CDT
Civil Twilight 6:06 AM CDT 8:58 PM CDT
Nautical Twilight 5:32 AM CDT 9:32 PM CDT
Astronomical Twilight 4:57 AM CDT 10:08 PM CDT
Moon 10:14 AM CDT (5/14) No Moon Set
Length of Visible Light 14h 51m
Length of Day
13h 56m
Waxing Crescent, 19% of the Moon is Illuminated
May 14
Waxing Crescent
May 17
First Quarter
May 24
Full
May 31
Last Quarter
Jun 8
New

Hourly Weather History & Observations

Time (CDT) Temp. Heat Index Dew Point Humidity Pressure Visibility Wind Dir Wind Speed Gust Speed Precip Events Conditions
12:53 AM 72.0 °F - 37.9 °F 29% 30.01 in 10.0 mi South 12.7 mph - N/A   Clear
1:53 AM 71.1 °F - 39.0 °F 31% 30.00 in 10.0 mi SSW 12.7 mph - N/A   Clear
2:53 AM 69.1 °F - 41.0 °F 36% 29.99 in 10.0 mi SSW 11.5 mph - N/A   Clear
3:53 AM 63.0 °F - 43.0 °F 48% 29.99 in 10.0 mi SSW 5.8 mph - N/A   Clear
4:53 AM 60.1 °F - 43.0 °F 53% 30.00 in 10.0 mi South 8.1 mph - N/A   Clear
5:53 AM 57.9 °F - 44.1 °F 60% 30.01 in 10.0 mi SSW 8.1 mph - N/A   Clear
6:53 AM 59.0 °F - 45.0 °F 60% 30.01 in 10.0 mi SW 6.9 mph - N/A   Clear
7:53 AM 64.0 °F - 46.9 °F 54% 30.02 in 10.0 mi SW 4.6 mph - N/A   Clear
8:53 AM 72.0 °F - 48.9 °F 44% 30.02 in 10.0 mi SW 11.5 mph - N/A   Clear
9:53 AM 78.1 °F - 51.1 °F 39% 30.03 in 10.0 mi SW 12.7 mph 21.9 mph N/A   Clear
10:53 AM 82.0 °F - 52.0 °F 35% 30.01 in 10.0 mi SSW 16.1 mph - N/A   Clear
11:53 AM 84.0 °F - 52.0 °F 33% 30.01 in 10.0 mi SSW 13.8 mph 20.7 mph N/A   Clear
12:53 PM 87.1 °F - 48.9 °F 27% 29.97 in 10.0 mi SSW 17.3 mph 24.2 mph N/A   Clear
1:53 PM 88.0 °F - 46.0 °F 23% 29.94 in 10.0 mi SSW 15.0 mph 23.0 mph N/A   Clear
2:53 PM 90.0 °F - 46.0 °F 22% 29.91 in 10.0 mi South 17.3 mph 25.3 mph N/A   Clear
3:53 PM 91.0 °F - 46.9 °F 22% 29.88 in 10.0 mi SSW 19.6 mph 27.6 mph N/A   Clear
4:53 PM 91.0 °F - 48.9 °F 23% 29.86 in 10.0 mi South 15.0 mph 28.8 mph N/A   Clear
5:53 PM 89.1 °F - 52.0 °F 28% 29.84 in 10.0 mi South 17.3 mph 27.6 mph N/A   Partly Cloudy
6:53 PM 89.1 °F - 51.1 °F 27% 29.81 in 10.0 mi South 21.9 mph 29.9 mph N/A   Clear
7:53 PM 86.0 °F 84.0 °F 53.1 °F 32% 29.81 in 10.0 mi South 12.7 mph 21.9 mph N/A   Clear
8:53 PM 81.0 °F 80.5 °F 54.0 °F 39% 29.81 in 10.0 mi South 10.4 mph - N/A   Unknown
9:53 PM 81.0 °F 80.4 °F 53.1 °F 38% 29.84 in 10.0 mi South 15.0 mph - N/A   Clear
10:53 PM 80.1 °F 79.9 °F 53.1 °F 39% 29.84 in 10.0 mi South 17.3 mph 25.3 mph N/A   Clear
11:53 PM 75.9 °F - 52.0 °F 43% 29.86 in 10.0 mi SSW 11.5 mph 27.6 mph N/A   Clear